Regional Weather Roundup
Issued by NWS Albany, NY

Home | Current Version | Previous Version | Graphics & Text | Print | Product List | Glossary Off
Versions: 1 2 3 4 5 6 7 8 9 10 11 12 13 14 15 16 17 18 19 20 21 22 23 24 25 26 27 28 29 30 31 32 33 34 35 36 37 38 39 40 41 42 43 44 45 46 47 48 49 50

000
ASUS41 KALY 280910
RWRALY

NEW YORK STATE HOURLY WEATHER ROUNDUP
NATIONAL WEATHER SERVICE ALBANY NY
500 AM EDT THU MAY 28 2015

NOTE: "FAIR" INDICATES FEW OR NO CLOUDS BELOW 12,000 FEET WITH NO
SIGNIFICANT WEATHER AND/OR NO OBSTRUCTIONS TO VISIBILITY.

NYZ032-033-038>043-046>054-057>066-NYZ062>081-281000-
EAST


CITY           SKY/WX    TMP DP  RH WIND       PRES   REMARKS
ALBANY         CLOUDY    68  65  90 S9        30.08R
GLENS FALLS    CLOUDY    67  64  90 SW7       30.06S
POUGHKEEPSIE   CLOUDY    65  63  93 CALM      30.11S
NEWBURGH       MOCLDY    66  66 100 CALM      30.13S
MONTGOMERY     CLOUDY    66  65  96 CALM      30.12R FOG
WHITE PLAINS   MOCLDY    63  62  97 CALM      30.13S FOG
ISLIP          MOCLDY    63  59  87 SW8       30.14S
NEW YORK CITY  PTCLDY    67  61  81 S6        30.12S
CENTRAL PARK   PTCLDY    71  65  81 W3        30.16R
$$

NYZ005>009-017-018-044>046-055-056-281000-
CENTRAL


CITY           SKY/WX    TMP DP  RH WIND       PRES   REMARKS
FULTON         LGT RAIN  65  61  87 S5        30.04F
SYRACUSE       LGT RAIN  66  60  81 W9        30.05R
ROME           CLOUDY    66  62  87 CALM      30.06R
ELMIRA         LGT RAIN  63  61  93 NW6       30.10S
BINGHAMTON     MOCLDY    65  64  97 SW10      30.12R FOG
MONTICELLO     CLOUDY    63  63 100 CALM      30.17R VSB 1/4
$$

NYZ026>034-041>043-281000-
NORTH


CITY           SKY/WX    TMP DP  RH WIND       PRES   REMARKS
WATERTOWN      LGT RAIN  67  59  75 SW14      30.02R
FORT DRUM      NOT AVBL
MASSENA        CLOUDY    67  58  72 SW14G24   29.98S
SARANAC LAKE   MOCLDY    61  60  97 SW6       30.04R
PLATTSBURGH    PTCLDY    62  61  96 SE5       29.98S
$$

NYZ001>004-010>016-019>021-281000-
WEST


CITY           SKY/WX    TMP DP  RH WIND       PRES   REMARKS
NIAGARA FALLS  MOCLDY    61  57  87 W13       30.07R
BUFFALO        CLOUDY    62  58  86 W8        30.08R
DUNKIRK        MOCLDY    60  58  92 W10       30.12R
JAMESTOWN      CLOUDY    61  57  88 SW9       30.15S
WELLSVILLE     CLOUDY    59  56  89 SW6       30.15R
ROCHESTER      CLOUDY    65  61  87 SW8       30.05R
PENN YAN       CLOUDY    65  59  81 SW13      30.08R
$$

             KEY
       WCI = WIND CHILL INDEX
       VSB = VISIBILITY
       HX  = HEAT INDEX
$$


USA.gov is the U.S. government's official web portal to all federal, state and local government web resources and services.